Flag for Isle of Man Weather past 2 weeks in Ramsey, Isle of Man

Now
59 °F

Light rain. Mostly cloudy.


Feels Like: 55 °F
Forecast: 58 / 62 °F
Wind: 22 mph from Southeast

Location: Isle Of Man / Ronaldsway Airport

Current Time: Aug 28, 2014 at 1:12:52 AM

Latest Report: Aug 28, 2014 at 12:50 AM


Visibility: N/A

Pressure: 29.65 "Hg

Humidity: 100%

Dew point: 59 °F

Location of RamseyLocation

Historic Weather in Ramsey — Graph

°F

Ramsey temperature yesterday

Maximum temperature yesterday: 63 °F (at 1:20 PM)
Minimum temperature yesterday: 55 °F (at 1:50 AM)
Average temperature yesterday: 59 °F

Past Weeks' High & Low Weather Summary

 TemperatureHumidityPressure
High64 °F (Aug 26, 1:20 PM)100% (Aug 25, 12:50 AM)30.15 "Hg (Aug 25, 12:50 AM)
Low45 °F (Aug 24, 5:50 AM)48% (Aug 19, 2:50 PM)29.53 "Hg (Aug 12, 11:50 PM)
Average57 °F75%29.87 "Hg
* Reported Aug 12 11:50 PM — Aug 27 11:50 PM, Ramsey, Weather by CustomWeather, © 2014

Note: Actual official high and low records may vary slightly from our data, if they occured in-between our weather recording intervals... More about our weather records

Advertising

Ramsey weather history for previous 24 hours

 ConditionsComfort  
Time TempWeatherWind HumidityBarometerVisibility
11:50 PM
Aug 27
59 °FLight rain. Mostly cloudy.25 mph94%29.68 "HgN/A
10:50 PM59 °FRain. Mostly cloudy.22 mph94%29.68 "Hg5 mi
9:50 PM61 °FLight rain. Mostly cloudy.22 mph88%29.71 "HgN/A
9:20 PM61 °FRain. More clouds than sun.22 mph83%29.71 "HgN/A
8:50 PM63 °FLight rain. Overcast.25 mph77%29.71 "HgN/A
8:20 PM63 °FPartly sunny.25 mph73%29.71 "HgN/A
7:50 PM63 °FPartly sunny.24 mph73%29.74 "HgN/A
6:50 PM63 °FPartly sunny.23 mph73%29.74 "HgN/A
6:20 PM63 °FSunny.23 mph73%29.77 "Hg10 mi
5:50 PM63 °FSunny.23 mph73%29.77 "Hg10 mi
5:20 PM63 °FPassing clouds.21 mph73%29.80 "HgN/A
4:50 PM63 °FPassing clouds.21 mph73%29.80 "HgN/A
3:20 PM63 °FPassing clouds.21 mph73%29.86 "HgN/A
2:50 PM61 °FPassing clouds.21 mph77%29.86 "HgN/A
2:20 PM61 °FPassing clouds.22 mph77%29.86 "HgN/A
1:50 PM61 °FPassing clouds.20 mph77%29.89 "HgN/A
1:20 PM63 °FPassing clouds.22 mph73%29.92 "HgN/A
12:50 PM61 °FPassing clouds.25 mph77%29.92 "HgN/A
12:20 PM61 °FPassing clouds.22 mph77%29.92 "HgN/A
11:50 AM61 °FPassing clouds.24 mph72%29.92 "HgN/A
11:20 AM59 °FPassing clouds.24 mph77%29.95 "HgN/A
10:50 AM59 °FPassing clouds.22 mph77%29.95 "HgN/A
10:20 AM59 °FScattered clouds.23 mph77%29.95 "HgN/A
9:50 AM59 °FScattered clouds.23 mph77%29.95 "HgN/A
9:20 AM59 °FPartly sunny.20 mph77%29.98 "HgN/A
8:50 AM57 °FPartly sunny.23 mph77%29.95 "HgN/A
8:20 AM57 °FScattered clouds.21 mph77%29.98 "HgN/A
7:50 AM57 °FPassing clouds.20 mph77%29.98 "HgN/A
7:20 AM55 °FScattered clouds.20 mph82%29.98 "HgN/A
6:50 AM55 °FPassing clouds.20 mph82%29.98 "HgN/A
6:20 AM55 °FPassing clouds.20 mph82%29.95 "HgN/A
5:50 AM55 °FPassing clouds.21 mph82%29.98 "HgN/A
5:20 AM55 °FPassing clouds.22 mph77%29.98 "HgN/A
4:50 AM55 °FPassing clouds.20 mph82%29.98 "HgN/A
2:50 AM55 °FClear.22 mph77%29.98 "Hg10 mi
1:50 AM55 °FClear.22 mph82%29.98 "Hg10 mi
Weather by CustomWeather, © 2014

See weather overviewHow to use our weather pages